| time (UTC) | temp F | wind direction | speed knots | gust knots | rain 1hr in | rain 24hr in | rain mn in | humidity % | barometer mb |
| 20260503072608 | 60 | 245 | 4.3 | 6.1 | 0.00 | 0.00 | 0.00 | 85 | 1014.3 |
| 20260503072022 | 60 | 246 | 3.5 | 8.7 | 0.00 | 0.00 | 0.00 | 85 | 1014.3 |
| 20260503071538 | 59 | 221 | 0.9 | 8.7 | 0.00 | 0.00 | 0.00 | 85 | 1014.3 |
| 20260503071020 | 59 | 212 | 4.3 | 7.0 | 0.00 | 0.00 | 0.00 | 86 | 1014.3 |
| 20260503070551 | 59 | 232 | 3.5 | 4.3 | 0.00 | 0.00 | 0.00 | 89 | 1014.2 |
| 20260503055033 | 0 | 0.0 | 0.0 | 0.00 | 0.00 | 0.00 | 1014.0 | ||
| 20260503054523 | 0 | 0.0 | 0.0 | 0.00 | 0.00 | 0.00 | 1013.9 | ||
| 20260503054105 | 0 | 0.0 | 0.0 | 0.00 | 0.00 | 0.00 | 1014.0 | ||
| 20260503053523 | 0 | 0.0 | 0.0 | 0.00 | 0.00 | 0.00 | 1014.0 | ||
| 20260503053045 | 0 | 0.0 | 0.0 | 0.00 | 0.00 | 0.00 | 1014.1 | ||
| 20260503052533 | 0 | 0.0 | 0.0 | 0.00 | 0.00 | 0.00 | 1014.0 | ||
| 20260503052033 | 0 | 0.0 | 0.0 | 0.00 | 0.00 | 0.00 | 1014.0 | ||
| 20260503051520 | 0 | 0.0 | 0.0 | 0.00 | 0.00 | 0.00 | 1013.9 | ||
| 20260503051027 | 0 | 0.0 | 0.0 | 0.00 | 0.00 | 0.00 | 1014.0 | ||
| 20260503050523 | 0 | 0.0 | 0.0 | 0.00 | 0.00 | 0.00 | 1013.9 | ||
| 20260503050042 | 0 | 0.0 | 0.0 | 0.00 | 0.00 | 0.00 | 1013.8 | ||
| 20260503045534 | 0 | 0.0 | 0.0 | 0.00 | 0.00 | 0.00 | 1013.8 | ||
| 20260503045041 | 0 | 0.0 | 0.0 | 0.00 | 0.00 | 0.00 | 1013.8 | ||
| 20260503044528 | 0 | 0.0 | 0.0 | 0.00 | 0.00 | 0.00 | 1013.7 | ||
| 20260503044028 | 0 | 0.0 | 0.0 | 0.00 | 0.00 | 0.00 | 1013.7 | ||
| 20260503043543 | 0 | 0.0 | 0.0 | 0.00 | 0.00 | 0.00 | 1013.7 | ||
| 20260503043029 | 59 | 239 | 4.3 | 7.0 | 0.00 | 0.00 | 0.00 | 82 | 1013.8 |
| 20260503042524 | 59 | 239 | 4.3 | 7.0 | 0.00 | 0.00 | 0.00 | 82 | 1013.8 |
| 20260503042030 | 59 | 247 | 4.3 | 7.0 | 0.00 | 0.00 | 0.00 | 82 | 1013.8 |
| 20260503041532 | 59 | 248 | 4.3 | 7.0 | 0.00 | 0.00 | 0.00 | 81 | 1013.8 |
| 20260503041042 | 59 | 257 | 2.6 | 6.1 | 0.00 | 0.00 | 0.00 | 81 | 1013.8 |
| 20260503040532 | 59 | 255 | 4.3 | 6.1 | 0.00 | 0.00 | 0.00 | 80 | 1014.0 |
| 20260503040105 | 59 | 247 | 4.3 | 5.2 | 0.00 | 0.00 | 0.00 | 79 | 1014.0 |
| 20260503035529 | 59 | 243 | 2.6 | 5.2 | 0.00 | 0.00 | 0.00 | 79 | 1014.1 |
| 20260503035021 | 59 | 219 | 2.6 | 4.3 | 0.00 | 0.00 | 0.00 | 79 | 1014.1 |
| 20260503034546 | 59 | 221 | 1.7 | 3.5 | 0.00 | 0.00 | 0.00 | 80 | 1014.1 |
| 20260503034025 | 59 | 240 | 1.7 | 3.5 | 0.00 | 0.00 | 0.00 | 80 | 1014.1 |
| 20260503033524 | 59 | 226 | 2.6 | 3.5 | 0.00 | 0.00 | 0.00 | 80 | 1014.0 |
| 20260503033101 | 60 | 228 | 1.7 | 4.3 | 0.00 | 0.00 | 0.00 | 79 | 1014.1 |
| 20260503032545 | 60 | 242 | 3.5 | 5.2 | 0.00 | 0.00 | 0.00 | 78 | 1014.1 |
| 20260503032038 | 60 | 235 | 3.5 | 5.2 | 0.00 | 0.00 | 0.00 | 78 | 1014.1 |
| 20260503031525 | 60 | 238 | 2.6 | 5.2 | 0.00 | 0.00 | 0.00 | 78 | 1014.1 |
| 20260503031026 | 60 | 235 | 2.6 | 5.2 | 0.00 | 0.00 | 0.00 | 77 | 1014.2 |
| 20260503030542 | 60 | 240 | 2.6 | 4.3 | 0.00 | 0.00 | 0.00 | 77 | 1014.1 |
| 20260503030118 | 60 | 241 | 2.6 | 6.1 | 0.00 | 0.00 | 0.00 | 77 | 1014.1 |
| 20260503025538 | 60 | 221 | 2.6 | 6.1 | 0.00 | 0.00 | 0.00 | 77 | 1014.1 |
| 20260503025029 | 60 | 239 | 3.5 | 6.1 | 0.00 | 0.00 | 0.00 | 78 | 1014.2 |
| 20260503024521 | 60 | 221 | 3.5 | 5.2 | 0.00 | 0.00 | 0.00 | 79 | 1014.4 |
| 20260503024042 | 60 | 238 | 1.7 | 5.2 | 0.00 | 0.00 | 0.00 | 79 | 1014.4 |
| 20260503023524 | 60 | 243 | 0.9 | 3.5 | 0.00 | 0.00 | 0.00 | 79 | 1014.4 |
| 20260503023054 | 60 | 217 | 1.7 | 5.2 | 0.00 | 0.00 | 0.00 | 78 | 1014.3 |
| 20260503022520 | 60 | 218 | 2.6 | 5.2 | 0.00 | 0.00 | 0.00 | 78 | 1014.3 |
| 20260503022033 | 60 | 219 | 2.6 | 4.3 | 0.00 | 0.00 | 0.00 | 78 | 1014.3 |
| 20260503021538 | 60 | 269 | 1.7 | 3.5 | 0.00 | 0.00 | 0.00 | 78 | 1014.3 |
| 20260503021041 | 60 | 212 | 1.7 | 3.5 | 0.00 | 0.00 | 0.00 | 78 | 1014.3 |
| 20260503020537 | 60 | 211 | 1.7 | 3.5 | 0.00 | 0.00 | 0.00 | 78 | 1014.2 |
| 20260503020053 | 60 | 221 | 2.6 | 3.5 | 0.00 | 0.00 | 0.00 | 78 | 1014.3 |
| 20260503015529 | 60 | 232 | 0.9 | 2.6 | 0.00 | 0.00 | 0.00 | 78 | 1014.2 |
| 20260503015057 | 60 | 224 | 0.9 | 1.7 | 0.00 | 0.00 | 0.00 | 79 | 1014.2 |
| 20260503014529 | 60 | 250 | 0.9 | 3.5 | 0.00 | 0.00 | 0.00 | 78 | 1014.2 |
| 20260503014033 | 60 | 221 | 0.0 | 3.5 | 0.00 | 0.00 | 0.00 | 79 | 1014.3 |
| 20260503013542 | 61 | 252 | 0.9 | 2.6 | 0.00 | 0.00 | 0.00 | 78 | 1014.4 |
| 20260503013036 | 61 | 228 | 0.0 | 2.6 | 0.00 | 0.00 | 0.00 | 78 | 1014.3 |
| 20260503012538 | 61 | 212 | 0.0 | 1.7 | 0.00 | 0.00 | 0.00 | 78 | 1014.3 |
| 20260503012028 | 61 | 224 | 0.0 | 2.6 | 0.00 | 0.00 | 0.00 | 78 | 1014.3 |
| 20260503011541 | 61 | 222 | 0.0 | 3.5 | 0.00 | 0.00 | 0.00 | 78 | 1014.5 |
| 20260503011033 | 61 | 245 | 2.6 | 4.3 | 0.00 | 0.00 | 0.00 | 78 | 1014.5 |
| 20260503010533 | 61 | 229 | 1.7 | 4.3 | 0.00 | 0.00 | 0.00 | 79 | 1014.5 |
| 20260503010048 | 60 | 221 | 0.0 | 0.9 | 0.00 | 0.00 | 0.00 | 80 | 1014.5 |
| 20260503005535 | 60 | 222 | 0.0 | 0.9 | 0.00 | 0.00 | 0.00 | 80 | 1014.7 |
| 20260503005043 | 60 | 219 | 0.0 | 1.7 | 0.00 | 0.00 | 0.00 | 80 | 1014.7 |
| 20260503004544 | 60 | 218 | 0.9 | 2.6 | 0.00 | 0.00 | 0.00 | 80 | 1014.8 |
| 20260503004029 | 60 | 236 | 0.9 | 3.5 | 0.00 | 0.00 | 0.00 | 80 | 1014.9 |
| 20260503003527 | 60 | 226 | 0.9 | 3.5 | 0.00 | 0.00 | 0.00 | 80 | 1015.0 |
| 20260503003035 | 60 | 213 | 0.9 | 3.5 | 0.00 | 0.00 | 0.00 | 81 | 1015.0 |
| 20260503002523 | 60 | 221 | 0.0 | 3.5 | 0.00 | 0.00 | 0.00 | 81 | 1015.0 |
| 20260503002049 | 60 | 228 | 2.6 | 3.5 | 0.00 | 0.00 | 0.00 | 81 | 1015.0 |
| 20260503001554 | 60 | 236 | 2.6 | 3.5 | 0.00 | 0.00 | 0.00 | 81 | 1015.0 |
| 20260503001043 | 60 | 239 | 1.7 | 3.5 | 0.00 | 0.00 | 0.00 | 81 | 1015.1 |
| 20260503000544 | 60 | 231 | 1.7 | 3.5 | 0.00 | 0.00 | 0.00 | 82 | 1015.0 |
| 20260503000108 | 60 | 243 | 2.6 | 3.5 | 0.00 | 0.00 | 0.00 | 82 | 1015.0 |
| 20260502235528 | 59 | 241 | 2.6 | 3.5 | 0.00 | 0.00 | 0.00 | 82 | 1015.1 |
| 20260502235022 | 60 | 233 | 0.0 | 3.5 | 0.00 | 0.00 | 0.00 | 82 | 1015.1 |
| 20260502234537 | 60 | 256 | 0.9 | 3.5 | 0.00 | 0.00 | 0.00 | 82 | 1015.1 |
| 20260502234034 | 60 | 253 | 1.7 | 2.6 | 0.00 | 0.00 | 0.00 | 81 | 1015.3 |
| 20260502233526 | 60 | 246 | 0.9 | 3.5 | 0.00 | 0.00 | 0.00 | 81 | 1015.3 |
| 20260502233040 | 60 | 240 | 1.7 | 3.5 | 0.00 | 0.00 | 0.00 | 81 | 1015.3 |
| 20260502232524 | 60 | 249 | 1.7 | 2.6 | 0.00 | 0.00 | 0.00 | 81 | 1015.3 |
| 20260502232039 | 60 | 257 | 0.9 | 2.6 | 0.00 | 0.00 | 0.00 | 81 | 1015.2 |
| 20260502231547 | 60 | 245 | 1.7 | 2.6 | 0.00 | 0.00 | 0.00 | 81 | 1015.3 |
| 20260502231024 | 60 | 250 | 0.0 | 1.7 | 0.00 | 0.00 | 0.00 | 80 | 1015.3 |
| 20260502230530 | 61 | 240 | 0.0 | 2.6 | 0.00 | 0.00 | 0.00 | 79 | 1015.3 |
| 20260502230108 | 61 | 256 | 1.7 | 2.6 | 0.00 | 0.00 | 0.00 | 77 | 1015.4 |
| 20260502225549 | 62 | 236 | 1.7 | 2.6 | 0.00 | 0.00 | 0.00 | 77 | 1015.4 |
| 20260502225022 | 62 | 232 | 1.7 | 2.6 | 0.00 | 0.00 | 0.00 | 77 | 1015.4 |
| 20260502224605 | 62 | 228 | 0.0 | 0.9 | 0.00 | 0.00 | 0.00 | 77 | 1015.4 |
| 20260502224044 | 62 | 228 | 0.0 | 0.9 | 0.00 | 0.00 | 0.00 | 76 | 1015.4 |
| 20260502223521 | 62 | 217 | 0.0 | 1.7 | 0.00 | 0.00 | 0.00 | 76 | 1015.4 |
| 20260502223040 | 62 | 208 | 0.0 | 2.6 | 0.00 | 0.00 | 0.00 | 76 | 1015.5 |
| 20260502222600 | 62 | 231 | 0.9 | 2.6 | 0.00 | 0.00 | 0.00 | 76 | 1015.3 |
| 20260502222039 | 62 | 201 | 0.0 | 3.5 | 0.00 | 0.00 | 0.00 | 76 | 1015.4 |
| 20260502221525 | 62 | 226 | 1.7 | 3.5 | 0.00 | 0.00 | 0.00 | 75 | 1015.4 |
| 20260502221023 | 62 | 210 | 0.9 | 4.3 | 0.00 | 0.00 | 0.00 | 75 | 1015.4 |
| 20260502220543 | 62 | 207 | 0.9 | 4.3 | 0.00 | 0.00 | 0.00 | 74 | 1015.4 |
| 20260502220104 | 62 | 193 | 0.9 | 2.6 | 0.00 | 0.00 | 0.00 | 74 | 1015.5 |
| 20260502215541 | 63 | 176 | 0.9 | 3.5 | 0.00 | 0.00 | 0.00 | 73 | 1015.6 |
| 20260502215020 | 63 | 214 | 0.0 | 2.6 | 0.00 | 0.00 | 0.00 | 73 | 1015.6 |
| 20260502214530 | 63 | 212 | 0.9 | 2.6 | 0.00 | 0.00 | 0.00 | 72 | 1015.7 |
| 20260502214027 | 63 | 206 | 0.0 | 2.6 | 0.00 | 0.00 | 0.00 | 72 | 1015.7 |
| 20260502213540 | 63 | 210 | 0.0 | 2.6 | 0.00 | 0.00 | 0.00 | 72 | 1015.8 |
| 20260502213020 | 63 | 216 | 0.0 | 2.6 | 0.00 | 0.00 | 0.00 | 71 | 1015.6 |
| 20260502212528 | 64 | 195 | 1.7 | 3.5 | 0.00 | 0.00 | 0.00 | 70 | 1015.7 |
| 20260502212040 | 64 | 155 | 0.9 | 3.5 | 0.00 | 0.00 | 0.00 | 70 | 1015.8 |
| 20260502211540 | 64 | 195 | 0.9 | 2.6 | 0.00 | 0.00 | 0.00 | 69 | 1015.7 |
| 20260502211045 | 64 | 207 | 0.0 | 3.5 | 0.00 | 0.00 | 0.00 | 69 | 1015.7 |
| 20260502210545 | 64 | 243 | 2.6 | 3.5 | 0.00 | 0.00 | 0.00 | 69 | 1015.7 |
| 20260502210052 | 63 | 240 | 0.9 | 3.5 | 0.00 | 0.00 | 0.00 | 70 | 1015.6 |
| 20260502205555 | 63 | 242 | 0.0 | 0.9 | 0.00 | 0.00 | 0.00 | 70 | 1015.6 |
| 20260502205034 | 63 | 242 | 0.0 | 0.9 | 0.00 | 0.00 | 0.00 | 70 | 1015.4 |
| 20260502204541 | 63 | 242 | 0.0 | 0.0 | 0.00 | 0.00 | 0.00 | 70 | 1015.4 |
| 20260502204045 | 63 | 242 | 0.0 | 0.0 | 0.00 | 0.00 | 0.00 | 71 | 1015.4 |
| 20260502203522 | 63 | 241 | 0.0 | 0.0 | 0.00 | 0.00 | 0.00 | 70 | 1015.3 |
| 20260502203022 | 63 | 242 | 0.0 | 0.9 | 0.00 | 0.00 | 0.00 | 70 | 1015.2 |
| 20260502202553 | 63 | 242 | 0.0 | 0.9 | 0.00 | 0.00 | 0.00 | 69 | 1015.1 |
| 20260502202046 | 64 | 242 | 0.0 | 2.6 | 0.00 | 0.00 | 0.00 | 69 | 1015.1 |
| 20260502201534 | 64 | 242 | 0.0 | 2.6 | 0.00 | 0.00 | 0.00 | 69 | 1015.0 |
| 20260502201047 | 64 | 242 | 0.0 | 1.7 | 0.00 | 0.00 | 0.00 | 68 | 1015.0 |
| 20260502200536 | 64 | 259 | 0.0 | 0.9 | 0.00 | 0.00 | 0.00 | 68 | 1015.0 |
| 20260502200053 | 64 | 258 | 0.0 | 1.7 | 0.00 | 0.00 | 0.00 | 68 | 1015.0 |
| 20260502195530 | 64 | 249 | 0.0 | 2.6 | 0.00 | 0.00 | 0.00 | 67 | 1014.9 |
| 20260502195033 | 64 | 246 | 1.7 | 3.5 | 0.00 | 0.00 | 0.00 | 67 | 1014.9 |
| 20260502194537 | 65 | 255 | 1.7 | 4.3 | 0.00 | 0.00 | 0.00 | 66 | 1014.9 |
| 20260502194037 | 65 | 263 | 1.7 | 5.2 | 0.00 | 0.00 | 0.00 | 65 | 1014.8 |
| 20260502193525 | 65 | 246 | 3.5 | 5.2 | 0.00 | 0.00 | 0.00 | 65 | 1014.8 |
| 20260502193027 | 65 | 263 | 3.5 | 5.2 | 0.00 | 0.00 | 0.00 | 64 | 1014.8 |
| 20260502192543 | 65 | 266 | 3.5 | 5.2 | 0.00 | 0.00 | 0.00 | 63 | 1014.8 |
| 20260502192025 | 66 | 252 | 3.5 | 4.3 | 0.00 | 0.00 | 0.00 | 62 | 1014.8 |
| 20260502191541 | 66 | 281 | 1.7 | 5.2 | 0.00 | 0.00 | 0.00 | 60 | 1014.8 |
| 20260502191050 | 67 | 262 | 3.5 | 5.2 | 0.00 | 0.00 | 0.00 | 58 | 1014.8 |
| 20260502190532 | 67 | 281 | 2.6 | 4.3 | 0.00 | 0.00 | 0.00 | 58 | 1014.8 |
| 20260502190104 | 67 | 257 | 2.6 | 4.3 | 0.00 | 0.00 | 0.00 | 57 | 1014.8 |
| 20260502185524 | 68 | 259 | 1.7 | 4.3 | 0.00 | 0.00 | 0.00 | 56 | 1014.8 |
| 20260502185054 | 68 | 249 | 1.7 | 5.2 | 0.00 | 0.00 | 0.00 | 55 | 1014.8 |
| 20260502184520 | 68 | 255 | 3.5 | 5.2 | 0.00 | 0.00 | 0.00 | 54 | 1014.8 |
| 20260502184021 | 68 | 245 | 0.9 | 5.2 | 0.00 | 0.00 | 0.00 | 54 | 1014.8 |
| 20260502183541 | 68 | 243 | 3.5 | 7.0 | 0.00 | 0.00 | 0.00 | 53 | 1014.8 |
| 20260502183057 | 69 | 239 | 3.5 | 8.7 | 0.00 | 0.00 | 0.00 | 52 | 1014.8 |
| 20260502182551 | 69 | 231 | 5.2 | 8.7 | 0.00 | 0.00 | 0.00 | 52 | 1014.7 |
| 20260502182028 | 69 | 231 | 2.6 | 7.8 | 0.00 | 0.00 | 0.00 | 52 | 1014.7 |
| 20260502181601 | 69 | 278 | 3.5 | 9.6 | 0.00 | 0.00 | 0.00 | 51 | 1014.7 |
| 20260502181049 | 69 | 245 | 4.3 | 9.6 | 0.00 | 0.00 | 0.00 | 50 | 1014.8 |
| 20260502180535 | 69 | 270 | 5.2 | 11.3 | 0.00 | 0.00 | 0.00 | 50 | 1014.7 |
| 20260502164048 | 73 | 188 | 5.2 | 13.9 | 0.00 | 0.00 | 0.00 | 46 | 1014.7 |
| 20260502163528 | 72 | 214 | 7.8 | 13.9 | 0.00 | 0.00 | 0.00 | 45 | 1014.8 |
| 20260502163033 | 73 | 201 | 7.8 | 13.0 | 0.00 | 0.00 | 0.00 | 42 | 1014.8 |
| 20260502162547 | 73 | 186 | 6.1 | 13.9 | 0.00 | 0.00 | 0.00 | 43 | 1014.9 |
| 20260502162042 | 73 | 249 | 7.8 | 16.5 | 0.00 | 0.00 | 0.00 | 42 | 1014.9 |
| 20260502161545 | 73 | 224 | 10.4 | 16.5 | 0.00 | 0.00 | 0.00 | 42 | 1014.9 |
| 20260502161034 | 73 | 211 | 7.8 | 19.1 | 0.00 | 0.00 | 0.00 | 42 | 1014.7 |
| 20260502160543 | 73 | 208 | 14.8 | 19.1 | 0.00 | 0.00 | 0.00 | 44 | 1014.9 |
| 20260502152027 | 72 | 276 | 8.7 | 13.9 | 0.00 | 0.00 | 0.00 | 52 | 1015.1 |
| 20260502151554 | 72 | 253 | 8.7 | 14.8 | 0.00 | 0.00 | 0.00 | 54 | 1015.2 |
| 20260502151024 | 72 | 249 | 7.0 | 13.0 | 0.00 | 0.00 | 0.00 | 54 | 1015.3 |
| 20260502150533 | 72 | 224 | 10.4 | 13.0 | 0.00 | 0.00 | 0.00 | 54 | 1015.4 |
| 20260502140106 | 70 | 202 | 4.3 | 10.4 | 0.00 | 0.00 | 0.00 | 62 | 1016.0 |
| 20260502130530 | 70 | 240 | 3.5 | 8.7 | 0.00 | 0.00 | 0.00 | 58 | 1016.6 |
| 20260502123608 | 71 | 248 | 0.9 | 6.1 | 0.00 | 0.00 | 0.00 | 57 | 1016.9 |
| 20260502123032 | 72 | 233 | 4.3 | 6.1 | 0.00 | 0.00 | 0.00 | 56 | 1016.8 |
| 20260502122540 | 72 | 231 | 0.9 | 4.3 | 0.00 | 0.00 | 0.00 | 56 | 1016.7 |
| 20260502122032 | 71 | 217 | 0.0 | 5.2 | 0.00 | 0.00 | 0.00 | 58 | 1016.8 |
| 20260502121523 | 71 | 166 | 0.9 | 5.2 | 0.00 | 0.00 | 0.00 | 58 | 1016.9 |
| 20260502121048 | 70 | 149 | 1.7 | 4.3 | 0.00 | 0.00 | 0.00 | 59 | 1016.9 |
| 20260502120547 | 70 | 136 | 0.0 | 6.1 | 0.00 | 0.00 | 0.00 | 61 | 1016.9 |
| 20260502115536 | 69 | 146 | 2.6 | 5.2 | 0.00 | 0.00 | 0.00 | 61 | 1017.2 |
| 20260502115035 | 69 | 150 | 2.6 | 5.2 | 0.00 | 0.00 | 0.00 | 60 | 1017.2 |
| 20260502114522 | 69 | 107 | 2.6 | 6.1 | 0.00 | 0.00 | 0.00 | 60 | 1017.3 |
| 20260502114024 | 69 | 146 | 2.6 | 6.1 | 0.00 | 0.00 | 0.00 | 60 | 1017.3 |
| 20260502113539 | 69 | 219 | 0.0 | 4.3 | 0.00 | 0.00 | 0.00 | 60 | 1017.3 |
| 20260502113050 | 69 | 217 | 1.7 | 4.3 | 0.00 | 0.00 | 0.00 | 60 | 1017.5 |
| 20260502112533 | 69 | 204 | 0.0 | 5.2 | 0.00 | 0.00 | 0.00 | 61 | 1017.7 |
| 20260502112024 | 69 | 226 | 1.7 | 5.2 | 0.00 | 0.00 | 0.00 | 61 | 1017.8 |
| 20260502111539 | 69 | 218 | 0.0 | 3.5 | 0.00 | 0.00 | 0.00 | 60 | 1017.8 |
| 20260502111039 | 69 | 271 | 0.0 | 2.6 | 0.00 | 0.00 | 0.00 | 60 | 1017.9 |
| 20260502110559 | 69 | 246 | 0.0 | 3.5 | 0.00 | 0.00 | 0.00 | 61 | 1017.9 |
| 20260502110057 | 68 | 148 | 0.0 | 3.5 | 0.00 | 0.00 | 0.00 | 61 | 1018.0 |
| 20260502105546 | 68 | 229 | 0.0 | 2.6 | 0.00 | 0.00 | 0.00 | 62 | 1018.2 |
| 20260502105028 | 68 | 236 | 0.0 | 2.6 | 0.00 | 0.00 | 0.00 | 62 | 1018.2 |
| 20260502104532 | 68 | 295 | 0.0 | 3.5 | 0.00 | 0.00 | 0.00 | 62 | 1018.1 |
| 20260502104042 | 67 | 184 | 0.0 | 3.5 | 0.00 | 0.00 | 0.00 | 63 | 1018.0 |
| 20260502103550 | 67 | 245 | 0.0 | 4.3 | 0.00 | 0.00 | 0.00 | 65 | 1018.2 |
| 20260502103029 | 67 | 248 | 0.9 | 5.2 | 0.00 | 0.00 | 0.00 | 64 | 1018.3 |
| 20260502102527 | 67 | 242 | 1.7 | 5.2 | 0.00 | 0.00 | 0.00 | 63 | 1018.3 |
| 20260502102028 | 67 | 246 | 1.7 | 5.2 | 0.00 | 0.00 | 0.00 | 61 | 1018.3 |
| 20260502101547 | 68 | 253 | 0.9 | 2.6 | 0.00 | 0.00 | 0.00 | 61 | 1018.2 |
| 20260502101029 | 68 | 51 | 0.0 | 0.9 | 0.00 | 0.00 | 0.00 | 60 | 1018.1 |
| 20260502100533 | 68 | 138 | 0.0 | 1.7 | 0.00 | 0.00 | 0.00 | 60 | 1018.2 |
| 20260502100105 | 68 | 138 | 0.0 | 6.1 | 0.00 | 0.00 | 0.00 | 61 | 1018.3 |
| 20260502091040 | 65 | 243 | 0.0 | 1.7 | 0.00 | 0.00 | 0.00 | 66 | 1018.5 |
| 20260502090543 | 64 | 276 | 0.0 | 1.7 | 0.00 | 0.00 | 0.00 | 66 | 1018.5 |
| 20260502080106 | 61 | 83 | 0.0 | 0.9 | 0.00 | 0.00 | 0.00 | 84 | 1018.1 |